Location: Wildlife_Club
(35.6000°N, 81.4330°W)
Time: 17:37:49
(UTC-04:00)

Vanguard 2 Rocket - Pass Details

Date: 22 June 2019
Orbit: 554 x 3326 km, 32.9° (Epoch: 18 July)

Event Time Altitude Azimuth Distance (km) Brightness Sun altitude
Rises 04:11:46 0° 282° (WNW) 5,715 10.7 -19.3°
Reaches altitude 10° 04:15:07 10° 278° (W) 5,020 10.4 -18.9°
Maximum altitude 04:30:23 55° 206° (SSW) 3,553 9.5 -16.8°
Drops below altitude 10° 04:49:48 10° 136° (SE) 6,202 11.1 -14.0°
Sets 04:54:33 0° 132° (SE) 7,081 11.5 -13.3°
